Preview of NWS' New Version of Forecast
This preview is not operational and should not be used for support decisions.

Regional Weather Roundup (RWR)

Issued by National Weather Service (NWS)

                            
000
ASUS45 KBOU 181510
RWRCO 

WEATHER ROUNDUP FOR COLORADO
NATIONAL WEATHER SERVICE DENVER/BOULDER CO
900 AM MDT THU APR 18 2019

NOTE: "FAIR" INDICATES FEW OR NO CLOUDS BELOW 12000 FEET WITH NO
SIGNIFICANT WEATHER AND/OR OBSTRUCTIONS TO VISIBILITY.

COZ001>005-013-030-031-181600-
...NORTHWEST COLORADO...
  
CITY           SKY/WX    TMP DP  RH WIND       PRES   REMARKS
CRAIG          CLOUDY    45  30  55 W10       30.33R                  
HAYDEN         CLOUDY    42  29  59 NW15      30.32R                  
MEEKER         FAIR      43  31  62 CALM      30.33R                  
RANGELY        FAIR      42  31  65 CALM      30.33R                  
RABBIT EARS PA NOT AVBL                                               
STEAMBOAT SPGS CLOUDY    38  31  75 W10       30.30R                  
WALDEN         PTSUNNY   36  25  64 N17G24    30.28R                  
$$

COZ006>008-011-181600-
...WEST CENTRAL VALLEYS...
  
CITY           SKY/WX    TMP DP  RH WIND       PRES   REMARKS
GRAND JUNCTION FAIR      49  30  48 CALM      30.32R                  
MONTROSE       FAIR      47  27  45 CALM      30.36R                  
EAGLE          CLOUDY    44  27  51 CALM      30.32R                  
RIFLE          FAIR      47  29  49 W8        30.30F                  
DELTA          FAIR      49  28  42 SE5       30.33S                  
NUCLA          FAIR      48  27  43 SE5       30.35S                  
$$

COZ017>023-064>068-181600-
...SOUTHWEST COLORADO...
  
CITY           SKY/WX    TMP DP  RH WIND       PRES   REMARKS
DURANGO        FAIR      45  24  43 E5        30.23R                  
CORTEZ         FAIR      53  26  35 N8        30.25R                  
PAGOSA SPRINGS FAIR      48  17  30 S5        30.24S                  
TELLURIDE      FAIR      34  23  64 CALM      30.39R                  
WOLF CREEK PAS FAIR      27  10  50 N9G21     30.40R WCI  17          
$$

COZ009-010-012-014-032>034-037-058>063-181600-
...CENTRAL COLORADO...
  
CITY           SKY/WX    TMP DP  RH WIND       PRES   REMARKS
ASPEN          PTSUNNY   40  24  53 NE5       30.32R                  
BUENA VISTA    FAIR      45  16  30 NW15      30.23F                  
COPPER MTN     CLOUDY    25  21  86 W24G33    30.30R WCI   9          
BERTHOUD PASS  CLOUDY    18   7  62 NW40      30.22R WCI  -4          
COTTONWOOD PAS FAIR      37  12  35 CALM      30.27S                  
GUNNISON       FAIR      42  21  43 SW12      30.32R                  
GRANBY         CLOUDY    35  28  76 W9G18     30.28R WCI  27          
KREMMLING      FAIR      41  28  60 NW16      30.30R                  
LEADVILLE      CLOUDY    28  21  75 NW15      30.30R WCI  16          
MONARCH PASS   FAIR      21  16  79 W24G31    30.43R WCI   4          
SALIDA         FAIR      44  22  41 CALM      30.32S                  
SUNLIGHT       CLOUDY    27  21  80 CALM      30.40S                  
WILKERSON PASS FAIR      30  16  55 N10G22    30.29R WCI  21          
$$

COZ069>075-181600-
...SAN LUIS VALLEY/SANGRE DE CRISTO MOUNTAINS...
  
CITY           SKY/WX    TMP DP  RH WIND       PRES   REMARKS
ALAMOSA        FAIR      46  13  26 N26G38    30.24R                  
DEL NORTE      FAIR      47  13  25 NW15G23   30.28R                  
LA VETA PASS   NOT AVBL                                               
SAGUACHE       FAIR      43  19  39 NW7G20    30.26R                  
$$

COZ035-036-038>040-181600-
...NORTHERN COLORADO FRONT RANGE...
  
CITY           SKY/WX    TMP DP  RH WIND       PRES   REMARKS
DENVER INTL AP PTSUNNY   44  37  76 NE20      30.20R                  
AURORA         PTSUNNY   44  38  79 E12       30.19R                  
FRONT RANGE AP PTSUNNY   45  37  76 NE21      30.21R                  
ERIE MUNI ARPT PTSUNNY   46  37  71 E3        30.25R                  
BOULDER MUN AP CLOUDY    45  37  76 CALM      30.20R                  
CENTENNIAL     PTSUNNY   44  35  70 E7        30.18R                  
BROOMFIELD     PTSUNNY   45  36  70 E5        30.19R                  
FORT COLLINS   LGT RAIN  45  36  70 N16       30.21R                  
LONGMONT       CLOUDY    46  39  74 NE6       30.23R                  
$$

COZ041-046-047-076>085-087-088-181600-
...PIKES PEAK/PALMER DIVIDE AND SOUTHERN FOOTHILLS...
  
CITY           SKY/WX    TMP DP  RH WIND       PRES   REMARKS
COLO. SPRINGS  PTSUNNY   44  34  67 SE6       30.19S                  
A. F. ACADEMY  CLOUDY    41  32  69 S5        30.17R                  
SCHRIEVER AFB  NOT AVBL                                               
CHEYENNE MTN   FAIR      42  35  76 E3        30.14                   
ELLICOTT         N/A    N/A N/A N/A SW10      30.18S                  
FALCON         CLOUDY    40  32  73 SW7       30.20R                  
FORT CARSON    FAIR      45  35  68 SW3       30.18F                  
LIMON          FAIR      43  35  73 N21       30.19R                  
MONUMENT HILL  FAIR      41  32  70 N13G18    30.20R                  
CANON CITY     FAIR      52  34  50 W7G20     30.17                   
WALSENBURG     NOT AVBL                                               
TRINIDAD       FAIR      47  36  65 W7        30.21S                  
$$

COZ042>045-048>051-090-091-181600-
...NORTHEAST COLORADO...
  
CITY           SKY/WX    TMP DP  RH WIND       PRES   REMARKS
GREELEY ARPT   PTSUNNY   44  36  73 N8        30.22R                  
AKRON          FAIR      46  33  60 N36G48    30.16R                  
BURLINGTON     CLOUDY    48  36  63 NW21G26   30.13S                  
WRAY           FAIR      52  34  50 NW26G36   30.11R                  
YUMA           NOT AVBL                                               
STERLING       CLOUDY    45  36  70 NW22G30   30.14R                  
HOLYOKE        FAIR      54  36  50 NW28G35   30.10S                  
FORT MORGAN    LGT RAIN  44  35  70 N22       30.20R                  
$$

COZ086-089-092>099-181600-
...SOUTHEAST COLORADO...
  
CITY           SKY/WX    TMP DP  RH WIND       PRES   REMARKS
PUEBLO         FAIR      50  38  63 S7        30.18S                  
LA JUNTA       CLOUDY    51  33  50 NW13      30.18R                  
LAMAR          PTSUNNY   57  32  38 N22G35    30.14R                  
SPRINGFIELD      N/A     53  34  48 N24G30    30.13S                  
$$